Midland, MI

10:21 AM EDT on October 22, 2017 (GMT -0400)
Barstow

Weather History for KIKW - February, 2013

Change the Weather History Date:

Friday, February 15, 2013

  Actual Average (KMBS) Record (KMBS)
Temperature  
Mean Temperature 24 °F -  
Max Temperature 29 °F 30 °F 46 °F (1999)
Min Temperature 17 °F 17 °F -13 °F (2015)
Degree Days  
Heating Degree Days 42    
Moisture  
Dew Point 16 °F    
Average Humidity 69    
Maximum Humidity 83    
Minimum Humidity 54    
Precipitation  
Precipitation 0.00 in - - ()
Sea Level Pressure  
Sea Level Pressure 30.01 in    
Wind  
Wind Speed 10 mph (WNW)    
Max Wind Speed 16 mph    
Max Gust Speed 29 mph    
Visibility 10 miles    
Events Snow    
Averages and records for this station are not official NWS values.
T = Trace of Precipitation, MM = Missing Value Source: NWS Daily Summary

Daily Weather History Graph

Daily Weather History Graph

Search for Another Location

Airport or City:

Trip Planner

Search our weather history database for the weather conditions in past years. The results will help you decide how hot, cold, wet, or windy it might be!

Date:

Astronomy

Feb. 15, 2013 Rise Set
Actual Time 7:35 AM EST 6:07 PM EST
Civil Twilight 7:05 AM EST 6:37 PM EST
Nautical Twilight 6:32 AM EST 7:10 PM EST
Astronomical Twilight 5:59 AM EST 7:43 PM EST
Moon 9:58 AM EST (2/15) No Moon Set
Length of Visible Light 11h 31m
Length of Day
10h 32m
Waxing Crescent, 30% of the Moon is Illuminated
Feb 15
Waxing Crescent
Feb 17
First Quarter
Feb 25
Full
Mar 4
Last Quarter
Mar 11
New

Hourly Weather History & Observations

Time (EST) Temp. Windchill Dew Point Humidity Pressure Visibility Wind Dir Wind Speed Gust Speed Precip Events Conditions
12:14 AM 29.3 °F 19.1 °F 22.1 °F 75% 29.82 in 10.0 mi WNW 12.7 mph 26.5 mph N/A   Overcast
12:33 AM 28.4 °F 16.6 °F 20.3 °F 72% 29.83 in 10.0 mi WNW 16.1 mph 28.8 mph N/A   Overcast
12:54 AM 28.2 °F 17.2 °F 20.1 °F 72% 29.84 in 10.0 mi NW 13.8 mph 20.7 mph N/A   Overcast
1:13 AM 28.2 °F 18.9 °F 21.2 °F 75% 29.85 in 10.0 mi WNW 10.4 mph - N/A   Overcast
1:34 AM 28.2 °F 17.2 °F 21.2 °F 75% 29.85 in 10.0 mi WNW 13.8 mph 18.4 mph N/A   Overcast
1:53 AM 27.5 °F 15.9 °F 20.1 °F 74% 29.86 in 10.0 mi West 15.0 mph 20.7 mph N/A   Overcast
2:14 AM 27.1 °F 18.2 °F 19.2 °F 72% 29.87 in 10.0 mi WNW 9.2 mph - N/A   Overcast
2:34 AM 26.8 °F 14.9 °F 18.5 °F 71% 29.87 in 10.0 mi WNW 15.0 mph 20.7 mph N/A   Overcast
2:53 AM 26.4 °F 18.9 °F 18.5 °F 72% 29.88 in 10.0 mi WNW 6.9 mph - N/A   Overcast
3:14 AM 26.4 °F 16.0 °F 17.6 °F 69% 29.89 in 10.0 mi WNW 11.5 mph 21.9 mph N/A   Overcast
3:34 AM 26.1 °F 15.0 °F 17.6 °F 70% 29.89 in 10.0 mi WNW 12.7 mph - N/A   Overcast
3:53 AM 25.7 °F 14.6 °F 17.1 °F 70% 29.89 in 10.0 mi WNW 12.7 mph 17.3 mph N/A   Overcast
4:14 AM 25.0 °F 17.1 °F 16.7 °F 71% 29.90 in 10.0 mi West 6.9 mph - N/A   Mostly Cloudy
4:33 AM 24.4 °F 14.2 °F 16.7 °F 72% 29.91 in 10.0 mi West 10.4 mph - N/A   Scattered Clouds
4:54 AM 23.7 °F 16.6 °F 16.5 °F 74% 29.92 in 10.0 mi West 5.8 mph - N/A   Clear
5:14 AM 23.0 °F 15.8 °F 15.8 °F 74% 29.93 in 10.0 mi West 5.8 mph - N/A   Clear
5:33 AM 23.0 °F 14.7 °F 16.2 °F 75% 29.94 in 10.0 mi West 6.9 mph - N/A   Clear
5:54 AM 22.6 °F 13.4 °F 15.8 °F 75% 29.95 in 10.0 mi West 8.1 mph - N/A   Clear
6:14 AM 22.5 °F 13.2 °F 15.8 °F 76% 29.95 in 10.0 mi West 8.1 mph - N/A   Clear
6:33 AM 22.1 °F 13.7 °F 15.8 °F 77% 29.95 in 10.0 mi West 6.9 mph - N/A   Clear
6:54 AM 21.7 °F 13.2 °F 15.8 °F 78% 29.96 in 10.0 mi WSW 6.9 mph - N/A   Clear
7:14 AM 21.2 °F 12.6 °F 15.8 °F 80% 29.97 in 10.0 mi West 6.9 mph - N/A   Clear
7:33 AM 21.2 °F 12.6 °F 16.0 °F 80% 29.98 in 10.0 mi West 6.9 mph - N/A   Scattered Clouds
7:54 AM 21.2 °F 13.6 °F 15.8 °F 80% 29.99 in 10.0 mi West 5.8 mph - N/A   Overcast
8:13 AM 21.0 °F 12.4 °F 15.6 °F 80% 29.99 in 10.0 mi WNW 6.9 mph - N/A   Overcast
8:42 AM 22.6 °F 13.4 °F 16.2 °F 76% 30.00 in 10.0 mi West 8.1 mph - N/A   Overcast
8:54 AM 23.0 °F 13.9 °F 16.3 °F 76% 30.02 in 10.0 mi West 8.1 mph - N/A   Overcast
9:14 AM 23.4 °F 14.3 °F 16.2 °F 74% 30.02 in 10.0 mi WNW 8.1 mph - N/A   Overcast
9:34 AM 23.9 °F 15.0 °F 15.8 °F 71% 30.03 in 10.0 mi WNW 8.1 mph - N/A   Overcast
9:54 AM 24.8 °F 14.6 °F 16.5 °F 71% 30.03 in 10.0 mi West 10.4 mph - N/A Snow Light Snow
10:14 AM 25.2 °F 16.5 °F 16.9 °F 71% 30.03 in 10.0 mi West 8.1 mph - N/A   Overcast
10:34 AM 25.3 °F 16.7 °F 17.2 °F 71% 30.04 in 10.0 mi West 8.1 mph - N/A Snow Light Snow
10:54 AM 25.7 °F 15.7 °F 17.6 °F 71% 30.04 in 10.0 mi West 10.4 mph - N/A Snow Light Snow
11:14 AM 25.7 °F 20.1 °F 17.8 °F 72% 30.04 in 10.0 mi West 4.6 mph - N/A Snow Light Snow
11:34 AM 26.4 °F 16.6 °F 16.7 °F 67% 30.04 in 10.0 mi NW 10.4 mph 16.1 mph N/A Snow Light Snow
11:54 AM 26.8 °F 16.5 °F 16.9 °F 66% 30.04 in 10.0 mi West 11.5 mph - N/A   Overcast
12:14 PM 27.7 °F 18.2 °F 15.8 °F 61% 30.04 in 10.0 mi WNW 10.4 mph 16.1 mph N/A   Overcast
12:54 PM 26.4 °F 15.5 °F 18.9 °F 73% 30.04 in 3.0 mi NW 12.7 mph - N/A Snow Light Snow
1:14 PM 26.8 °F 22.8 °F 17.1 °F 67% 30.04 in 10.0 mi NW 3.5 mph - N/A   Overcast
1:34 PM 27.3 °F 17.7 °F 16.5 °F 64% 30.04 in 10.0 mi West 10.4 mph - N/A   Overcast
1:54 PM 27.9 °F 19.8 °F 15.1 °F 59% 30.04 in 10.0 mi West 8.1 mph - N/A   Overcast
2:14 PM 27.5 °F 19.3 °F 15.3 °F 60% 30.04 in 10.0 mi West 8.1 mph - N/A   Overcast
2:35 PM 28.0 °F 19.3 °F 14.4 °F 57% 30.04 in 10.0 mi WNW 9.2 mph - N/A   Overcast
2:54 PM 27.7 °F 18.8 °F 13.8 °F 56% 30.04 in 10.0 mi WNW 9.2 mph - N/A   Overcast
3:14 PM 27.5 °F 19.3 °F 14.2 °F 57% 30.04 in 10.0 mi WNW 8.1 mph - N/A   Overcast
3:34 PM 27.3 °F 19.9 °F 13.5 °F 56% 30.04 in 10.0 mi NW 6.9 mph - N/A   Overcast
3:54 PM 27.5 °F 18.6 °F 12.6 °F 54% 30.05 in 10.0 mi WNW 9.2 mph - N/A   Overcast
4:14 PM 27.3 °F 17.1 °F 13.3 °F 56% 30.05 in 10.0 mi West 11.5 mph - N/A   Overcast
4:34 PM 27.3 °F 19.1 °F 13.6 °F 56% 30.06 in 10.0 mi West 8.1 mph - N/A   Overcast
4:54 PM 27.0 °F 18.0 °F 13.8 °F 58% 30.06 in 10.0 mi WNW 9.2 mph - N/A Snow Light Snow
5:14 PM 26.8 °F 16.5 °F 13.1 °F 56% 30.06 in 10.0 mi WNW 11.5 mph - N/A   Overcast
5:34 PM 26.6 °F 18.2 °F 12.2 °F 55% 30.07 in 10.0 mi WNW 8.1 mph - N/A   Overcast
5:54 PM 26.6 °F 19.1 °F 12.4 °F 55% 30.07 in 10.0 mi WNW 6.9 mph - N/A   Overcast
6:14 PM 26.4 °F 19.8 °F 13.3 °F 58% 30.07 in 10.0 mi West 5.8 mph - N/A   Overcast
6:34 PM 26.4 °F 22.4 °F 13.8 °F 59% 30.08 in 10.0 mi West 3.5 mph - N/A   Overcast
6:55 PM 26.2 °F 19.6 °F 14.2 °F 60% 30.08 in 10.0 mi West 5.8 mph - N/A   Overcast
7:14 PM 26.1 °F 19.4 °F 14.9 °F 63% 30.09 in 10.0 mi West 5.8 mph - N/A   Overcast
7:34 PM 25.7 °F 16.4 °F 16.0 °F 67% 30.09 in 10.0 mi West 9.2 mph - N/A   Overcast
7:55 PM 25.2 °F 15.1 °F 17.1 °F 71% 30.09 in 10.0 mi WNW 10.4 mph - N/A   Overcast
8:14 PM 24.8 °F 15.3 °F 17.4 °F 74% 30.10 in 10.0 mi WNW 9.2 mph - N/A   Overcast
8:34 PM 23.9 °F 13.5 °F 18.1 °F 79% 30.10 in 5.0 mi WNW 10.4 mph - N/A Snow Light Snow
8:55 PM 23.0 °F 11.7 °F 18.1 °F 82% 30.11 in 3.0 mi NW 11.5 mph 16.1 mph N/A Snow Light Snow
9:14 PM 22.8 °F 14.5 °F 16.5 °F 77% 30.11 in 10.0 mi NW 6.9 mph - N/A   Overcast
9:34 PM 22.8 °F 15.5 °F 14.9 °F 72% 30.11 in 10.0 mi WNW 5.8 mph - N/A   Overcast
9:55 PM 22.6 °F 15.3 °F 14.5 °F 71% 30.11 in 10.0 mi WNW 5.8 mph - N/A   Overcast
10:14 PM 22.5 °F 14.1 °F 14.7 °F 72% 30.11 in 10.0 mi WNW 6.9 mph - N/A   Overcast
10:34 PM 22.5 °F 17.8 °F 13.6 °F 69% 30.10 in 10.0 mi West 3.5 mph - N/A   Overcast
10:54 PM 21.4 °F - 13.1 °F 70% 30.10 in 10.0 mi Calm Calm - N/A   Overcast
11:14 PM 20.5 °F 15.6 °F 12.7 °F 72% 30.09 in 10.0 mi WNW 3.5 mph - N/A   Mostly Cloudy
11:34 PM 18.3 °F - 12.9 °F 79% 30.09 in 10.0 mi Calm Calm - N/A   Scattered Clouds
11:54 PM 17.6 °F - 13.1 °F 83% 30.08 in 10.0 mi Calm Calm - N/A   Mostly Cloudy